CAPE
420 1013 1203 1208 1498 869 218 72 94 86 208 239 264 147 57 109 420 480 283 92 269 544 574 748 700 534 643 449 867 952 1312 1248 1202 1121 1155 1383 1521 1324 1255 1067 1166 1009 1381 1860 1781 1829 1891 1983 2013
567 425 516 1001 992 296 284 107 128 153 216 296 321 331 50 125 210 291 322 127 235 418 519 581 728 525 677 453 711 849 1070 982 1028 918 1155 1316 1166 828 373 954 850 1475 1831 1716 1613 1832 1994 1832 1616
437 340 1036 628 621 69 284 165 179 130 144 283 352 357 142 72 187 286 238 234 419 497 520 668 466 412 394 535 773 779 694 653 597 652 439 722 891 699 248 1104 1538 1770 1692 1669 1542 1621 1499 1658 1926
723 750 619 476 474 361 265 260 116 82 163 264 280 222 179 114 313 439 345 288 363 368 327 510 544 601 631 696 613 525 378 599 745 688 267 750 518 647 1324 1506 1604 1797 1577 1334 1395 1368 1395 1669 1751
628 874 498 659 369 442 446 337 129 106 155 204 196 228 96 90 183 404 202 116 332 292 379 590 763 698 522 382 400 318 674 854 1080 763 442 759 1261 1142 1597 1561 1638 1312 1684 1624 1469 1600 1737 1712 1929
585 556 610 199 326 410 507 366 81 110 109 129 114 276 82 69 96 265 177 225 508 278 349 663 578 109 123 135 378 474 770 573 687 1319 1352 1069 1081 1522 1461 1695 1409 1528 1572 1685 1695 1708 1618 2096 2291
646 366 198 93 483 481 483 412 114 103 113 122 96 180 73 72 48 70 420 224 171 560 828 936 797 582 34 52 441 539 468 433 329 590 978 1514 1479 1255 1515 1757 1605 1578 1581 1643 1617 1523 1327 1574 2083
570 73 95 87 107 491 299 346 307 105 57 53 102 114 96 56 26 31 128 304 275 353 45 740 305 356 347 296 584 404 301 231 184 76 279 1286 1210 1423 1462 1760 1818 1508 1622 1613 1551 1227 1229 1772 1997
409 474 207 155 255 197 222 171 155 126 127 215 118 81 58 3 39 82 239 196 290 418 143 582 577 352 327 233 396 342 283 193 199 282 880 1302 1330 1238 1403 1484 1396 1406 1521 1354 1269 1146 1243 1499 2023
414 707 201 185 97 264 77 82 195 142 169 166 132 17 0 3 66 98 164 197 319 490 470 352 941 1333 1087 1070 574 456 578 674 356 705 641 1296 1614 2089 1144 1318 1340 1276 1331 1316 1309 1244 1537 1379 1470
374 739 456 26 67 136 89 130 253 118 111 154 122 0 30 89 130 109 109 181 146 306 327 641 1400 1405 919 993 727 908 1221 927 1110 1761 1686 942 966 447 287 466 680 980 1506 1256 1208 1046 1370 1162 1661
371 582 374 15 115 129 66 53 306 268 121 62 86 1 27 82 106 116 129 214 304 203 359 211 1272 761 270 536 593 858 920 686 670 497 432 561 410 369 251 266 375 539 1087 857 950 964 1589 1816 1775
493 566 331 81 116 124 200 395 247 212 169 44 79 118 82 103 96 124 147 243 411 335 307 376 443 488 460 345 566 690 705 859 311 488 546 358 391 743 578 866 920 887 718 1312 1381 1258 1927 1789 1499
516 550 336 91 16 37 75 100 350 318 318 102 94 122 113 142 140 105 169 244 358 407 333 267 285 1501 1733 1559 790 501 705 524 349 361 768 1214 669 1959 1228 1750 1044 1096 1290 1148 1640 2245 1629 1306 1315
587 472 465 360 56 129 44 60 272 394 345 164 134 146 135 180 149 140 193 293 333 397 366 200 428 1083 1440 1593 1018 794 412 620 303 776 1453 1162 1363 1696 1716 1280 1260 957 1700 1959 1837 1807 1620 1272 1234
436 472 520 549 641 120 41 35 25 127 502 135 138 161 183 173 173 234 215 300 351 760 503 246 213 668 939 1837 1688 843 1028 389 385 638 1260 1349 1560 1598 2317 1856 1242 1625 1405 1015 1021 985 905 1270 1363
538 89 359 627 631 491 208 55 18 81 432 324 166 137 130 264 323 493 452 382 329 786 693 313 206 413 886 1276 1111 1294 1002 471 538 552 817 1381 1144 1780 1890 1299 2083 2607 1019 1007 1040 923 1280 1587 1341
11 51 52 526 647 650 440 358 398 159 220 335 350 176 197 244 402 438 424 441 457 766 990 755 517 1073 1151 1396 1488 923 790 469 508 722 809 1307 1106 1505 2320 1720 2125 2643 1020 1006 1679 2412 2009 1795 1768
31 24 91 296 309 579 634 499 624 582 376 202 593 357 312 256 289 490 508 442 550 824 969 1062 1117 1799 1621 1220 1298 801 628 666 522 686 1097 1240 1045 1712 2240 1396 2132 2044 2617 3318 2321 2369 2570 1455 1337
17 32 173 344 396 683 426 418 645 892 489 409 488 510 350 340 235 653 615 570 656 903 938 1235 1334 1789 1836 1006 1712 1277 1981 611 619 922 1104 1047 1177 2007 1743 2567 2209 3516 2323 3070 2763 3165 2110 1142 1877
10 63 102 323 367 294 117 190 569 638 841 614 451 634 605 309 376 476 629 842 730 1046 1168 1197 1619 1549 1656 1313 1605 1605 1398 2031 1115 1581 1190 1071 1361 1723 1800 2209 2782 2943 4056 2365 2922 3009 2788 1929 2096
52 15 6 102 99 0 11 54 14 782 799 718 674 555 481 484 154 357 621 638 948 1135 1289 1432 1595 1591 1756 1881 2350 1931 1311 1067 1129 1031 981 1078 1597 1708 1940 1610 2005 2977 2826 3790 2977 2463 3119 2863 1835
31 0 40 134 131 96 216 97 115 422 793 809 712 692 396 275 255 527 395 742 940 1027 1171 1430 1481 1419 1602 2132 2012 1632 1715 987 1200 1302 2495 2876 2298 2102 1985 1445 1725 2199 2369 3442 2861 2897 3041 2439 2296
1 1 32 52 69 60 68 7 202 164 265 580 689 688 515 230 374 535 412 485 703 1037 1085 1302 1675 1659 2137 2400 2136 2017 1712 1725 2376 1674 1396 1205 1781 2047 2360 1662 1724 1852 1915 2608 2539 2706 2923 3012 2568
0 84 164 109 75 154 67 0 150 39 82 419 466 398 743 545 396 490 556 653 935 1153 1199 1466 1963 1919 2007 2157 1989 1858 2011 1822 1626 1437 1000 1379 1859 1173 2728 2329 2344 1417 1809 2059 2536 3091 3062 2564 2649
19 54 28 107 174 102 45 47 157 50 128 405 535 805 474 553 555 612 480 872 1113 800 1077 1706 2119 2258 1946 1922 2185 2771 2146 1716 1446 1475 967 742 1302 1030 3761 2571 2262 1398 1375 1887 2227 2510 2362 2876 2234
50 2 10 34 46 5 48 26 23 1 110 196 659 795 816 403 442 696 634 696 873 954 961 1197 1870 2423 2267 1932 2673 2521 3035 1996 1858 2904 1833 1599 2234 2066 1901 1829 2119 1943 1261 2068 2017 1228 1919 2113 2119
0 7 37 7 61 179 24 8 227 98 85 116 204 531 910 931 686 588 618 773 948 1134 996 1080 1372 2132 2304 2015 2144 2154 2116 2133 1980 1826 2660 2206 979 1298 2388 1718 1764 2055 2025 2246 2542 2437 2335 2105 1792
0 0 0 13 67 50 139 12 2 47 22 162 233 427 675 725 760 674 559 587 1005 1084 1176 1131 1305 1672 2165 2058 2240 2303 2078 1912 2013 1469 2020 2029 2049 1999 1897 2288 2270 2018 1833 2001 2526 2793 2518 2438 2119
10 42 32 36 40 121 31 37 6 26 35 221 444 680 924 886 942 916 782 517 709 1159 1283 1661 1326 1410 1800 2085 2203 2130 2074 2052 1922 1852 1496 1876 2489 2635 2627 2249 2637 2258 1880 2385 2467 2214 1621 1941 1905
CIN
-178 -58 -4 -1 -0 -28 -15 -0 -0 -0 -13 -2 -0 -12 -14 -27 -1 -0 -2 -9 -7 -0 -0 -1 -0 -1 -2 -5 -1 -3 -0 -0 -1 -2 -1 -0 -0 -0 -0 -0 -3 -6 -4 -0 -0 -0 -0 -0 -0
-35 -22 -27 -4 -0 -21 -1 -0 -9 -0 -7 -10 -0 -3 -10 -6 -7 -3 -1 -9 -5 -2 -3 -2 -5 -3 -2 -6 -6 -5 -1 -2 -2 -3 -4 -0 -0 -12 -59 -7 -5 -2 -0 -1 -0 -0 -0 -0 -0
-93 -28 -0 -0 -7 -262 -0 -9 -12 -0 -0 -16 -0 -1 -0 -4 -2 -1 -0 -1 -4 -11 -4 -0 -5 -1 -3 -3 -2 -8 -4 -4 -3 -4 -5 -4 -1 -14 -43 -9 -0 -0 -0 -0 -0 -5 -3 -3 -0
-3 -0 -1 -0 -2 -12 -0 -0 -0 -0 -1 -11 -0 -0 -4 -6 -0 -0 -0 -0 -1 -0 -3 -0 -0 -0 -0 -0 -0 -6 -16 -4 -0 -3 -4 -5 -8 -4 -0 -0 -0 -1 -2 -2 -3 -7 -5 -0 -0
-2 -0 -3 -0 -8 -0 -0 -0 -10 -0 -3 -0 -0 -0 -6 -12 -0 -0 -1 -4 -1 -0 -0 -0 -0 -0 -0 -0 -0 -6 -1 -2 -2 -0 -5 -4 -0 -0 -1 -2 -0 -2 -1 -2 -4 -0 -0 -0 -0
-0 -0 -5 -7 -6 -0 -0 -0 -5 -0 -0 -0 -0 -0 -8 -5 -5 -0 -18 -2 -7 -5 -0 -0 -3 -19 -10 -0 -1 -1 -3 -14 -3 -1 -1 -3 -0 -0 -3 -0 -0 -0 -2 -0 -0 -0 -3 -1 -0
-1 -5 -4 -12 -3 -0 -0 -4 -2 -0 -0 -0 -0 -0 -2 -5 -4 -0 -2 -6 -11 -0 -1 -0 -0 -0 -35 -22 -0 -4 -11 -2 -3 -2 -3 -1 -0 -1 -4 -0 -0 -0 -0 -1 -4 -8 -19 -20 -8
-0 -14 -1 -5 -38 -0 -8 -12 -1 -1 -0 -0 -1 -2 -0 -5 -6 -5 -4 -2 -1 -0 -31 -0 -8 -3 -0 -5 -0 -4 -0 -0 -0 -8 -11 -8 -7 -6 -8 -6 -0 -3 -0 -7 -13 -26 -35 -24 -22
-4 -10 -1 -0 -5 -26 -20 -13 -41 -6 -1 -0 -0 -1 -5 -0 -5 -0 -0 -7 -5 -2 -32 -0 -8 -33 -17 -17 -1 -0 -0 -6 -21 -14 -14 -10 -2 -2 -0 -2 -15 -4 -9 -24 -35 -41 -53 -69 -72
-1 -0 -30 -8 -25 -16 -72 -19 -29 -0 -18 -0 -0 -0 -0 -0 -0 -0 -0 -0 -0 -15 -5 -3 -17 -0 -0 -0 -0 -9 -9 -0 -20 -31 -20 -23 -3 -7 -0 -5 -27 -28 -29 -46 -47 -67 -89 -109 -27
-2 -0 -0 -53 -13 -36 -37 -45 -8 -0 -0 -1 -0 -0 -13 -0 -0 -0 -0 -0 -0 -0 -0 -0 -2 -0 -18 -1 -2 -3 -0 -3 -9 -14 -16 -8 -1 -11 -1 -30 -21 -11 -47 -9 -43 -46 -27 -1 -3
-19 -0 -12 -64 -39 -0 -20 -18 -3 -7 -49 -0 -0 -0 -4 -0 -0 -0 -0 -0 -0 -0 -0 -0 -4 -1 -0 -0 -28 -41 -24 -16 -3 -0 -3 -0 -3 -0 -0 -0 -0 -1 -7 -1 -0 -0 -3 -0 -1
-0 -0 -0 -3 -17 -3 -10 -2 -5 -11 -1 -1 -0 -0 -0 -0 -0 -0 -0 -0 -0 -0 -1 -3 -6 -0 -0 -0 -17 -16 -6 -18 -0 -0 -0 -0 -0 -0 -0 -0 -0 -0 -0 -0 -0 -0 -1 -1 -0
-5 -0 -0 -18 -57 -49 -18 -27 -12 -1 -1 -1 -0 -0 -0 -0 -0 -0 -0 -0 -0 -0 -0 -0 -0 -0 -0 -0 -1 -2 -13 -0 -0 -4 -0 -0 -0 -0 -0 -1 -0 -0 -0 -0 -0 -1 -1 -0 -0
-0 -7 -1 -0 -43 -56 -52 -29 -2 -8 -0 -0 -1 -0 -0 -0 -0 -0 -0 -0 -0 -0 -1 -0 -0 -0 -0 -0 -0 -0 -0 -0 -0 -0 -0 -0 -0 -4 -1 -0 -0 -1 -0 -4 -5 -2 -3 -1 -0
-0 -4 -0 -0 -0 -52 -26 -26 -126 -87 -2 -1 -0 -0 -1 -0 -0 -6 -0 -0 -0 -0 -0 -0 -0 -0 -0 -1 -0 -10 -0 -0 -1 -0 -0 -2 -10 -2 -6 -0 -1 -1 -0 -0 -0 -0 -1 -0 -0
-3 -3 -1 -0 -0 -3 -7 -21 -82 -48 -3 -1 -0 -0 -0 -5 -0 -0 -0 -0 -0 -1 -0 -0 -0 -0 -0 -0 -0 -0 -8 -1 -0 -0 -0 -3 -11 -10 -0 -0 -1 -7 -0 -0 -0 -0 -2 -2 -0
-22 -2 -0 -1 -0 -0 -1 -1 -17 -28 -22 -7 -1 -1 -2 -0 -3 -3 -0 -0 -0 -0 -0 -0 -0 -0 -1 -0 -0 -0 -0 -0 -0 -0 -0 -15 -4 -7 -2 -0 -0 -1 -0 -0 -0 -7 -0 -6 -5
-1 -0 -0 -0 -4 -0 -2 -1 -0 -8 -28 -17 -2 -8 -2 -0 -14 -3 -0 -0 -0 -0 -0 -0 -0 -0 -0 -0 -2 -0 -0 -0 -0 -0 -14 -15 -5 -5 -8 -0 -1 -1 -4 -1 -4 -0 -2 -0 -12
-0 -0 -0 -0 -4 -3 -0 -0 -0 -0 -19 -12 -5 -0 -8 -4 -42 -13 -0 -0 -0 -0 -0 -0 -0 -0 -0 -0 -13 -1 -0 -0 -0 -0 -9 -3 -7 -1 -3 -3 -3 -7 -0 -3 -0 -5 -0 -0 -9
-0 -2 -0 -38 -0 -0 -0 -97 -0 -0 -0 -16 -33 -11 -3 -25 -1 -1 -0 -0 -0 -0 -0 -0 -0 -0 -0 -0 -0 -0 -0 -7 -0 -2 -0 -5 -2 -0 -3 -8 -3 -5 -4 -0 -2 -1 -6 -0 -1
-2 -0 -0 -0 -66 -0 -3 -30 -149 -0 -0 -0 -0 -33 -29 -0 -85 -16 -1 -1 -1 -0 -0 -0 -1 -3 -0 -0 -0 -0 -0 -0 -0 -0 -1 -0 -0 -0 -0 -11 -17 -9 -1 -4 -3 -0 -4 -10 -0
-0 -0 -0 -0 -0 -24 -5 -0 -64 -0 -0 -0 -0 -1 -12 -30 -1 -2 -16 -5 -2 -1 -1 -0 -2 -17 -0 -0 -1 -1 -2 -81 -30 -0 -5 -0 -0 -0 -0 -13 -16 -13 -1 -4 -6 -3 -8 -1 -5
-0 -0 -5 -0 -0 -6 -15 -2 -5 -41 -0 -0 -2 -0 -6 -5 -1 -0 -1 -25 -1 -2 -0 -0 -0 -10 -0 -0 -0 -3 -0 -11 -26 -6 -0 -0 -0 -0 -0 -3 -18 -21 -4 -4 -3 -2 -4 -4 -6
-0 -4 -0 -6 -12 -0 -4 -0 -17 -29 -0 -0 -0 -0 -3 -14 -29 -2 -0 -2 -3 -1 -0 -2 -0 -1 -0 -0 -0 -0 -0 -0 -0 -0 -0 -7 -24 -1 -4 -1 -4 -16 -23 -3 -0 -0 -0 -0 -0
-0 -0 -8 -9 -0 -0 -5 -0 -0 -1 -0 -3 -28 -1 -0 -0 -6 -0 -1 -1 -1 -1 -0 -1 -3 -0 -0 -0 -0 -0 -0 -0 -0 -4 -1 -0 -14 -35 -6 -6 -0 -18 -16 -2 -2 -0 -1 -0 -0
-1 -0 -1 -1 -0 -5 -0 -0 -3 -0 -0 -0 -0 -5 -0 -1 -9 -0 -0 -0 -0 -0 -0 -0 -1 -0 -0 -0 -0 -0 -0 -0 -0 -0 -3 -0 -0 -1 -3 -0 -0 -0 -13 -0 -1 -7 -0 -1 -0
-0 -2 -0 -1 -2 -0 -10 -6 -6 -3 -0 -0 -0 -0 -0 -0 -4 -0 -0 -0 -0 -1 -0 -0 -0 -0 -0 -0 -0 -0 -0 -0 -0 -0 -0 -2 -144 -4 -7 -0 -0 -0 -0 -0 -0 -0 -0 -0 -0
-0 -0 -0 -0 -24 -2 -0 -30 -1 -23 -17 -0 -0 -0 -0 -0 -2 -9 -11 -19 -0 -1 -6 -0 -0 -0 -0 -0 -0 -0 -0 -0 -0 -0 -0 -0 -0 -0 -0 -0 -0 -0 -0 -0 -0 -0 -2 -0 -0
-0 -1 -1 -0 -7 -1 -0 -0 -0 -33 -37 -1 -0 -0 -5 -11 -2 -4 -24 -37 -0 -12 -4 -9 -5 -0 -0 -0 -0 -0 -0 -0 -0 -0 -0 -0 -0 -0 -0 -0 -0 -0 -0 -0 -0 -0 -0 -0 -0
Wind_Speed
10 13 7 7 6 1 7 5 13 8 11 15 9 12 17 16 15 6 10 8 17 14 15 13 9 8 6 6 6 7 8 7 7 6 8 9 11 10 10 11 11 11 11 13 12 12 12 12 11
13 3 6 5 7 4 4 8 13 13 13 14 8 13 13 17 15 13 11 6 10 9 10 13 10 8 7 7 7 8 7 7 6 5 8 10 11 11 12 9 11 10 12 12 11 11 12 11 11
16 6 9 6 3 5 11 11 13 9 6 8 8 9 9 11 12 11 13 10 14 13 10 13 11 9 7 8 8 8 9 8 7 6 8 8 11 13 13 9 11 12 12 11 11 11 9 8 7
6 6 7 7 9 15 12 9 10 10 10 9 11 12 15 7 12 17 13 11 12 12 16 13 12 12 9 8 9 7 9 8 8 10 11 9 11 12 12 11 11 11 11 12 11 10 7 5 5
7 7 9 6 4 10 12 8 5 7 8 8 5 18 16 17 15 21 14 12 11 14 16 15 15 15 12 10 8 7 6 9 8 10 11 10 12 12 11 11 12 11 12 12 11 8 6 5 8
2 4 4 4 5 13 10 4 7 9 9 8 17 17 16 14 13 16 19 14 21 6 15 14 16 16 14 14 12 14 12 12 8 9 12 13 11 10 10 11 11 11 11 10 10 7 6 8 8
4 2 3 4 7 8 8 7 8 8 10 13 13 16 13 13 12 11 23 16 9 18 14 11 12 14 15 9 12 16 16 14 12 9 13 12 13 11 10 11 11 10 10 9 8 5 4 5 6
7 3 3 5 3 6 5 7 4 7 12 8 5 6 16 16 13 13 13 18 14 13 15 12 10 9 7 6 13 15 13 12 12 11 8 11 5 9 9 10 9 9 9 8 5 3 3 5 5
8 1 4 8 15 4 3 9 2 2 8 8 2 17 21 17 15 13 14 15 11 13 12 14 15 7 8 10 10 12 13 11 4 6 3 8 8 10 9 9 8 7 7 6 4 3 5 6 9
5 6 3 12 8 13 6 7 9 10 11 9 11 19 20 17 14 12 12 12 14 14 11 6 18 16 12 10 10 9 10 6 4 5 6 5 5 4 10 9 7 5 5 5 6 9 12 13 8
4 4 8 5 7 10 10 2 3 8 8 12 15 18 18 16 13 12 12 10 14 12 10 14 10 12 5 11 11 8 7 8 6 11 12 11 5 6 7 6 6 6 9 8 9 10 10 5 5
4 7 14 5 8 12 8 7 8 14 5 13 16 17 16 16 14 12 14 11 12 10 10 12 10 3 8 8 6 7 6 6 9 5 6 4 4 4 5 4 5 6 7 3 5 3 6 2 1
14 9 14 10 10 12 7 1 2 15 7 14 14 14 15 14 13 11 12 12 10 10 12 9 11 7 6 4 8 5 6 4 9 8 5 5 6 5 4 4 7 4 6 7 3 3 2 1 4
11 8 12 15 10 4 6 6 7 7 5 14 12 13 13 12 13 10 11 12 11 9 11 11 12 11 6 3 1 6 3 6 7 8 4 3 6 3 8 7 7 5 4 4 5 6 2 1 4
12 14 10 13 9 5 10 5 5 8 5 13 11 11 13 12 13 11 10 11 11 9 10 10 12 11 10 8 7 4 7 6 6 8 6 4 4 1 3 1 4 6 6 4 5 5 3 4 4
7 12 6 9 11 6 3 2 13 16 8 10 12 12 12 13 13 12 11 11 11 9 11 10 10 12 7 7 2 1 4 7 5 8 8 6 4 3 6 7 3 5 5 3 3 1 2 3 3
12 6 13 11 11 12 10 8 20 18 12 11 11 15 13 13 13 11 12 11 10 14 11 10 8 10 8 7 5 4 3 3 5 5 6 6 5 4 3 1 6 6 2 1 3 4 4 4 1
18 5 7 10 11 10 7 5 13 15 11 10 10 10 13 13 15 11 13 11 14 13 11 10 9 10 3 8 1 3 6 5 5 4 3 6 5 5 5 5 2 6 3 4 3 5 5 3 3
10 5 9 8 8 9 14 14 12 17 12 12 12 13 11 15 10 13 10 12 12 13 12 10 9 10 7 6 5 7 7 4 5 5 4 4 4 4 2 4 5 5 3 6 2 3 4 1 3
9 1 4 6 7 9 8 8 15 17 16 10 12 9 10 13 12 18 14 13 13 12 11 12 10 10 8 6 4 2 3 7 5 5 5 6 5 4 4 4 1 3 6 2 2 3 5 2 5
13 3 6 14 9 8 5 10 12 13 18 18 14 14 8 9 13 13 13 12 13 15 11 12 12 10 9 6 4 2 2 3 4 6 6 6 5 5 1 3 5 2 7 7 3 1 2 7 3
2 8 4 7 10 3 25 3 21 17 13 15 18 14 13 12 11 9 16 15 13 14 14 12 12 12 10 8 8 6 6 7 8 6 7 7 6 5 5 3 4 3 6 6 3 2 5 4 6
5 4 6 6 12 15 18 8 8 15 18 17 14 18 19 17 16 19 12 15 15 15 15 14 12 13 10 10 5 6 9 7 9 4 9 4 6 5 4 4 4 4 7 5 2 2 4 4 6
4 6 7 10 12 10 1 9 10 3 8 11 19 17 15 20 11 13 13 14 15 12 15 16 14 14 12 11 10 10 7 2 5 5 7 7 7 7 6 5 4 4 4 3 4 3 2 4 5
11 16 5 7 7 9 12 8 10 3 9 6 3 15 20 19 16 18 13 13 14 17 15 14 16 14 14 13 12 11 8 5 4 4 7 5 4 9 10 6 5 5 4 2 4 3 2 2 3
14 18 9 8 9 6 7 0 8 6 9 10 3 3 17 17 17 17 15 12 11 14 15 13 18 15 14 14 13 10 10 7 7 9 5 7 8 9 13 8 5 4 5 5 4 5 6 5 3
6 8 14 10 8 5 6 5 11 5 7 7 8 9 7 10 16 11 15 14 13 14 14 15 17 15 15 15 12 12 10 11 9 5 7 9 4 4 8 6 7 7 7 6 5 6 4 4 3
15 13 7 7 2 11 2 4 12 9 7 5 5 11 7 6 7 16 14 14 12 13 14 15 14 15 15 15 13 12 13 12 10 7 5 4 8 7 5 7 8 7 7 7 6 6 7 5 6
9 10 8 13 8 4 3 9 10 12 6 4 8 5 8 8 7 5 9 8 12 11 11 16 16 16 15 15 13 12 13 13 12 12 11 10 7 5 6 5 6 6 8 8 6 7 6 7 6
12 9 9 7 9 7 9 8 11 12 11 4 8 9 8 5 5 5 12 11 13 9 7 5 12 15 15 14 13 13 12 13 14 13 13 12 10 9 9 7 10 9 8 8 9 10 8 9 8
Wind_Direction
200 212 228 248 260 64 54 88 101 116 86 74 57 76 63 36 18 67 104 92 120 117 132 144 141 145 128 112 125 129 143 134 130 137 118 118 106 106 102 108 115 110 121 111 114 108 106 105 107
238 214 239 273 253 278 86 86 70 53 82 93 84 73 89 73 85 94 92 86 101 128 108 126 139 154 147 139 138 139 140 141 139 135 119 117 115 114 104 86 121 119 120 116 111 112 107 101 106
259 233 272 248 47 223 95 66 78 74 119 119 93 59 34 93 55 100 92 101 91 113 121 105 124 134 141 142 148 141 146 143 140 127 128 140 130 131 122 149 125 126 121 116 108 105 107 108 111
234 213 247 262 306 85 94 79 113 108 67 54 119 92 71 47 94 102 105 100 108 106 99 106 106 107 114 132 138 132 138 137 137 142 147 150 141 133 140 132 123 123 124 117 111 110 113 122 140
228 272 255 129 280 99 69 52 95 91 67 116 94 98 89 89 109 116 104 107 93 110 115 103 97 96 95 106 131 114 117 124 132 143 139 136 136 138 128 129 131 130 122 118 118 114 104 115 127
292 291 303 138 174 106 99 5 75 83 97 109 105 105 101 118 122 122 123 123 111 116 101 103 100 91 79 79 88 101 94 83 80 126 123 124 118 112 121 137 124 130 122 126 117 109 98 111 127
169 133 275 137 159 119 95 344 56 93 110 108 144 112 128 139 125 118 122 107 98 102 85 90 96 100 88 57 68 79 79 84 93 93 118 111 107 144 157 128 129 133 131 128 120 116 114 109 132
278 126 156 121 189 129 109 93 349 60 86 119 86 152 151 129 142 121 135 131 131 114 108 115 105 95 122 139 94 94 82 78 131 133 100 97 123 145 137 134 130 139 142 129 129 149 127 96 108
247 42 236 152 177 125 149 122 57 281 121 39 299 143 129 143 144 140 121 124 108 99 138 125 128 158 148 121 124 113 118 106 71 116 150 149 186 173 140 97 133 152 145 140 170 202 205 175 157
216 33 302 40 52 144 149 117 174 166 125 112 101 105 129 148 156 143 129 140 133 121 117 149 143 150 149 139 148 163 131 143 199 190 203 195 200 95 108 117 145 161 159 178 202 226 230 211 182
42 50 105 40 108 143 144 169 351 186 112 135 129 133 146 154 156 158 134 134 112 126 139 116 137 153 175 139 162 163 157 163 181 221 210 177 145 168 139 136 160 163 190 192 195 209 227 24 355
106 42 92 60 99 133 148 185 232 73 107 109 133 142 148 161 162 158 134 129 147 137 120 135 124 122 115 155 161 176 187 182 165 162 123 147 172 181 167 158 119 186 182 112 225 103 34 265 179
87 97 116 109 95 108 169 308 132 136 168 119 133 149 155 160 146 138 136 135 133 141 115 134 115 142 137 196 144 133 155 186 107 179 150 140 135 131 122 148 181 151 150 190 196 114 34 170 107
95 110 114 121 98 101 68 6 350 113 118 129 151 154 159 147 136 134 142 147 152 143 135 127 140 118 124 76 82 141 178 124 162 134 131 326 124 194 129 197 150 173 238 86 94 23 78 61 113
139 135 135 116 122 106 105 344 332 325 166 152 164 163 145 146 132 156 151 150 148 159 134 149 142 136 141 143 182 176 146 167 150 110 156 146 155 24 142 129 199 145 79 154 150 210 221 109 88
156 148 140 136 147 137 151 216 288 294 267 174 168 149 155 145 158 150 158 159 145 136 148 166 161 142 168 101 169 231 100 149 153 159 154 156 144 147 242 205 118 92 212 131 95 352 154 63 102
133 207 134 155 169 153 165 170 212 236 267 181 181 157 170 161 150 156 155 160 159 131 155 167 149 157 158 147 138 119 108 191 171 170 152 154 157 159 256 200 101 240 185 104 283 103 326 142 358
260 88 96 145 168 179 205 195 160 195 212 237 203 186 176 169 163 169 166 162 157 142 161 172 176 123 149 148 128 148 142 180 167 152 158 174 165 156 237 115 140 249 195 176 48 347 30 311 9
296 50 98 93 128 213 186 155 161 171 191 205 228 159 215 185 168 169 180 156 153 154 164 179 187 139 184 190 213 156 167 156 184 162 153 174 169 145 195 149 180 251 325 26 149 226 158 45 37
292 51 83 126 161 234 146 176 159 172 192 203 224 228 192 185 187 153 171 169 165 158 175 172 184 168 205 197 230 208 176 159 181 166 163 215 177 159 152 324 199 321 107 76 92 7 331 102 60
237 243 142 156 189 251 227 5 161 178 176 193 205 253 242 155 192 179 183 177 179 159 176 180 181 179 196 200 175 180 230 38 203 137 186 187 187 169 222 186 339 282 287 145 184 85 354 343 118
138 353 205 235 110 78 282 184 313 161 190 192 194 203 241 222 155 226 181 186 179 163 167 172 181 179 189 198 183 193 215 176 211 167 173 160 196 180 188 172 212 241 311 42 158 96 333 324 338
66 146 266 259 267 170 241 254 184 164 180 189 214 195 193 237 227 183 229 183 169 169 166 170 179 180 192 188 197 194 232 119 234 155 130 236 166 198 192 192 202 216 248 120 36 274 352 288 312
350 210 226 243 251 260 39 285 106 266 106 175 178 202 189 215 218 229 201 153 161 184 166 165 175 183 193 184 189 220 241 262 317 165 160 185 177 182 202 186 196 223 266 222 223 251 248 333 350
227 222 126 301 359 325 213 280 69 184 107 69 128 172 179 196 209 233 190 180 176 167 183 164 170 188 191 190 188 204 216 213 191 227 216 212 180 180 162 187 189 197 218 243 264 218 298 242 334
209 265 279 287 180 185 112 280 87 58 97 109 163 324 176 178 203 220 199 192 170 185 180 179 164 189 193 191 202 191 195 211 221 202 263 235 158 235 139 175 205 210 194 204 204 234 245 183 227
145 253 279 297 195 264 136 167 135 107 127 129 124 158 181 204 188 209 214 209 187 188 189 190 167 188 195 199 195 188 178 221 220 220 195 234 270 120 151 187 203 182 206 212 182 244 223 254 226
283 332 210 215 174 261 129 218 123 187 95 132 189 123 122 155 208 183 209 205 199 185 191 189 187 183 201 204 194 193 186 200 220 237 238 257 332 246 135 187 205 212 205 211 217 242 198 236 268
187 237 236 287 339 300 102 9 92 119 108 85 103 105 111 125 143 169 188 217 213 201 184 190 191 191 198 207 195 198 194 197 204 208 201 235 241 267 234 198 252 230 221 222 226 259 296 194 230
305 284 244 224 188 293 328 126 100 119 128 114 103 97 90 70 100 167 173 211 206 216 239 205 186 198 196 208 201 199 200 203 201 213 210 204 217 211 225 222 219 222 236 252 202 232 256 215 230